Flag for Canada Weather past 2 weeks in Yarmouth County, Nova Scotia, Canada

Now
64 °F

Fog.


Feels Like: 64 °F
Forecast: 62 / 68 °F
Wind: 14 mph from South

Location: Yarmouth

Current Time: Jul 28, 2014 at 10:55:02 AM

Latest Report: Jul 28, 2014 at 10:00 AM


Visibility: 0 mi

Pressure: 29.78 "Hg

Humidity: 100%

Dew point: 64 °F

Location of Yarmouth CountyLocation

Historic Weather in Yarmouth County — Graph

°F

Yarmouth County temperature yesterday

Maximum temperature yesterday: 73 °F (at 4:00 PM)
Minimum temperature yesterday: 57 °F (at 1:00 AM)
Average temperature yesterday: 65 °F

Past Weeks' High & Low Weather Summary

 TemperatureHumidityPressure
High77 °F (Jul 19, 1:00 PM)100% (Jul 14, 11:00 AM)30.29 "Hg (Jul 14, 11:00 AM)
Low54 °F (Jul 18, 5:00 AM)53% (Jul 13, 10:00 AM)29.76 "Hg (Jul 24, 6:00 PM)
Average64 °F89%30.00 "Hg
* Reported Jul 13 9:00 AM — Jul 28 9:00 AM, Yarmouth County, Weather by CustomWeather, © 2014

Note: Actual official high and low records may vary slightly from our data, if they occured in-between our weather recording intervals... More about our weather records

Advertising

Yarmouth County weather history for previous 24 hours

 ConditionsComfort  
Time TempWeatherWind HumidityBarometerVisibility
9:00 AM
Jul 28
68 °FFog.12 mph94%29.78 "Hg3 mi
8:00 AM66 °FFog.13 mph94%29.78 "Hg6 mi
7:00 AM66 °FFog.10 mph94%29.78 "Hg6 mi
6:00 AM64 °FFog.9 mph100%29.78 "Hg3 mi
5:00 AM64 °FFog.8 mph100%29.77 "Hg2 mi
4:00 AM64 °FFog.14 mph100%29.77 "Hg5 mi
3:00 AM66 °FOvercast.14 mph94%29.79 "Hg9 mi
2:00 AM63 °FPassing clouds.8 mph100%29.80 "Hg9 mi
1:00 AM61 °FThunderstorms. Fog.7 mph94%29.83 "Hg4 mi
12:00 AM64 °FThunderstorms. Fog.10 mph94%29.82 "Hg5 mi
11:00 PM
Jul 27
64 °FFog.8 mph100%29.83 "Hg5 mi
10:00 PM64 °FSprinkles. Fog.9 mph100%29.85 "Hg2 mi
9:48 PM64 °FSprinkles. Fog.12 mph100%29.85 "Hg2 mi
9:00 PM66 °FSprinkles. Mostly cloudy.9 mph94%29.85 "Hg8 mi
8:00 PM66 °FPartly sunny.9 mph94%29.85 "Hg12 mi
7:00 PM68 °FBroken clouds.9 mph78%29.87 "Hg15 mi
6:00 PM70 °FPartly sunny.9 mph69%29.88 "Hg15 mi
5:00 PM72 °FBroken clouds.13 mph65%29.89 "Hg15 mi
4:00 PM73 °FBroken clouds.13 mph65%29.89 "Hg15 mi
3:00 PM72 °FPartly sunny.15 mph73%29.90 "Hg15 mi
2:00 PM70 °FPartly sunny.17 mph73%29.90 "Hg15 mi
1:00 PM72 °FPartly sunny.15 mph78%29.91 "Hg15 mi
12:00 PM72 °FPassing clouds.13 mph73%29.92 "Hg15 mi
11:00 AM68 °FScattered clouds.13 mph78%29.93 "Hg15 mi
10:00 AM64 °FBroken clouds.9 mph88%29.93 "Hg12 mi
Weather by CustomWeather, © 2014

See weather overviewHow to use our weather pages